Zurück zum Katalog

AO-27

EYESAT A

AktivAmateurfunkSSO
NORAD 22825·PAYLOAD·🇺🇸 United States

Gestartet Sep 26, 1993 von Guiana Space Centre

Loading…

Nächste Überflüge (nächste 24 Stunden)

TLE

AktuellSource: Space-Track

Epoche: Sep 14, 2026, 10:21 UTC

1 22825U 93061C   26257.43183635  .00000066  00000-0  42092-4 0  9996
2 22825  98.6797 324.7758 0008151 190.9932 169.1074 14.30961131719768

Verfolge AO-27 in Echtzeit mit AllMySat

Download on the App Store